Location: Columbia
(38.9520°N, 92.3340°W)
Time: 14:51:11
(UTC-05:00)

Meteor 1-4 Rocket - Visible Passes

Search period start: 22 July 2014 00:00
Search period end: 01 August 2014 00:00
Orbit: 470 x 538 km, 81.2° (Epoch: 22 July)

Date Brightness Start Highest point End Pass type
(mag) Time Alt. Az. Time Alt. Az. Time Alt. Az.
22 Jul 4.4 03:43:18 10° NNE 03:46:27 29° ENE 03:49:04 13° SE visible
22 Jul 4.5 05:19:59 10° WNW 05:21:45 13° W 05:23:31 10° WSW visible
23 Jul 4.8 03:24:57 10° NNE 03:27:46 22° ENE 03:29:47 14° ESE visible
23 Jul 4.1 05:00:45 10° NW 05:03:12 18° W 05:04:30 15° WSW visible
24 Jul 5.1 03:06:43 10° NNE 03:09:03 16° ENE 03:10:35 13° ESE visible
24 Jul 3.7 04:41:43 10° NW 04:44:38 24° W 04:45:18 22° WSW visible
25 Jul 5.4 02:48:45 10° NE 02:50:19 12° ENE 02:51:26 11° E visible
25 Jul 3.3 04:22:50 10° NNW 04:26:03 32° W 04:26:10 32° W visible
26 Jul 3.0 04:04:01 10° NNW 04:07:06 43° WNW 04:07:06 43° WNW visible
27 Jul 3.1 03:45:17 10° NNW 03:48:04 48° NW 03:48:04 48° NW visible
28 Jul 3.5 03:26:36 10° N 03:29:06 43° N 03:29:06 43° N visible
29 Jul 4.1 03:07:58 10° N 03:10:10 34° N 03:10:10 34° N visible
30 Jul 4.6 02:49:24 10° N 02:51:16 27° NNE 02:51:16 27° NNE visible
31 Jul 5.1 02:30:53 10° N 02:32:23 21° NNE 02:32:23 21° NNE visible
